SKY MUSTER 2 (NBN1B)

Last updated on Sun Jun 21 2026 00:03:07 GMT+0000 (Coordinated Universal Time)

1 41794U 16060B 26170.92171682 -.00000250 00000+0 00000+0 0 9996 2 41794 0.0186 333.5141 0001466 103.0969 308.1429 1.00270174 35543
UTC large
Height (km)
Speed (km/s)
/
Latitude / Longitude
Inclination (degrees)
Orbital Period (minutes)
Azimuth
Elevation
Range (km)
Doppler Factor

Next 0 passes for location: London (51.5072 / 0.1276)

No passes found over London.
SKY MUSTER 2 (NBN1B)